Regional Weather Roundup
Issued by NWS

Home | Current Version | Previous Version | Text Only | Print | Product List | Glossary On
Versions: 1 2 3 4 5 6 7 8 9 10 11 12 13 14 15 16 17 18 19 20 21 22 23 24 25 26 27 28 29 30 31 32 33 34 35 36 37 38 39 40 41 42 43 44 45 46 47 48 49 50
000
ASUS45 KBOU 011007
RWRCO

WEATHER ROUNDUP FOR COLORADO
NATIONAL WEATHER SERVICE DENVER/BOULDER CO
300 AM MST SUN FEB 01 2015

NOTE: "FAIR" INDICATES FEW OR NO CLOUDS BELOW 12000 FEET WITH NO
SIGNIFICANT WEATHER AND/OR OBSTRUCTIONS TO VISIBILITY.

COZ001>005-013-030-031-011100-
...NORTHWEST COLORADO...

CITY           SKY/WX    TMP DP  RH WIND       PRES   REMARKS
CRAIG          CLEAR     20  15  81 SW5       30.10R WCI  13
HAYDEN         CLEAR     19  16  86 W8        30.08R WCI   9
MEEKER         CLEAR     19  16  88 CALM      30.10R
MOUNT WERNER   NOT AVBL
STEAMBOAT SPGS CLEAR     18  16  91 E3        30.06R
WALDEN         CLOUDY    18  12  79 NW8       29.99R WCI   7
$$

COZ006>008-011-011100-
...WEST CENTRAL VALLEYS...

CITY           SKY/WX    TMP DP  RH WIND       PRES   REMARKS
GRAND JUNCTION PTCLDY    31  30  96 S3        30.09R
MONTROSE       PTCLDY    30  27  88 SE6       30.11R WCI  24
EAGLE          PTCLDY    23  19  86 SE7       30.08R WCI  15
RIFLE          CLEAR     25  22  88 SE5       30.10R WCI  19
DELTA          CLOUDY    37  35  95 CALM      30.10S
NUCLA          CLEAR     30  28  93 CALM      30.13R
$$

COZ017>023-064>068-011100-
...SOUTHWEST COLORADO...

CITY           SKY/WX    TMP DP  RH WIND       PRES   REMARKS
DURANGO        FOG       31  31 100 CALM      29.99R VSB 1/4
CORTEZ         CLEAR     33  29  85 NW6       30.03R WCI  28
PAGOSA SPRINGS LGT SNOW  31  31 100 CALM      29.99S
TELLURIDE      PTCLDY    20  14  77 CALM      30.09S
WOLF CREEK PAS PTCLDY    14  -4  44 NE12      30.03R WCI   0
$$

COZ009-010-012-014-032>034-037-058>063-011100-
...CENTRAL COLORADO...

CITY           SKY/WX    TMP DP  RH WIND       PRES   REMARKS
ASPEN          PTCLDY    20  14  77 VRB3      30.04R
BUENA VISTA    PTCLDY    25   6  44 W5        29.95R WCI  19
COPPER MTN     NOT AVBL
BERTHOUD PASS  LGT SNOW   3  -2  78 NW37      29.84S VSB 3/4 WCI -24
COTTONWOOD PAS PTCLDY    27   1  33 W22G32    29.93R WCI  12
GUNNISON       PTCLDY    19  12  73 CALM      30.05R
KREMMLING      PTCLDY    23  10  58 NW7       30.04R WCI  15
LEADVILLE      MOCLDY    15   2  56 NW15G30   29.95R WCI   0
MONARCH PASS     N/A     10   7  85 MISG      30.02R
SALIDA         PTCLDY    28  15  59 NW3       30.03R
SUNLIGHT       PTCLDY   N/A N/A N/A W5          N/A
WILKERSON PASS PTCLDY    10   1  67 N15G32    29.92S WCI  -6
$$

COZ069>075-011100-
...SAN LUIS VALLEY/SANGRE DE CRISTO MOUNTAINS...

CITY           SKY/WX    TMP DP  RH WIND       PRES   REMARKS
ALAMOSA        FOG       25  23  92 CALM      29.97S VSB 1/4
LA VETA PASS   PTCLDY    19  16  86 MISG      29.94R
SAGUACHE       MOCLDY    27  16  63 CALM      29.98R
$$

COZ035-036-038>040-011100-
...NORTHERN COLORADO FRONT RANGE...

CITY           SKY/WX    TMP DP  RH WIND       PRES   REMARKS
DENVER INTL AP CLOUDY    23  17  78 NE14      30.04R WCI  11
DMNS CITY PARK   N/A     24  23  97 NE2G10    30.06R
AURORA         LGT SNOW  22  20  92 NE16      30.04R FOG     WCI   9
FRONT RANGE AP NOT AVBL
ERIE MUNI ARPT FLURRIES  26  21  79 NE3       30.06R
BOULDER MUN AP LGT SNOW  27  27 100 CALM      30.05R
CENTENNIAL     LGT SNOW  22  21  96 NE9       30.03R FOG     WCI  12
BROOMFIELD     LGT SNOW  25  23  93 NE7       30.04S VSB 3/4 WCI  17
FORT COLLINS   PTCLDY    25  16  68 NE7       30.05R WCI  17
LONGMONT       FLURRIES  29  22  75 E5        30.07R WCI  24
$$

COZ041-046-047-076>085-087-088-011100-
...PIKES PEAK/PALMER DIVIDE AND SOUTHERN FOOTHILLS...

CITY           SKY/WX    TMP DP  RH WIND       PRES   REMARKS
COLO. SPRINGS  MOCLDY    28  21  75 N15       29.99R WCI  16
A. F. ACADEMY  FLURRIES  25  21  82 N17G24    29.98R WCI  12
ELLICOTT       PTCLDY   N/A N/A N/A N15       29.96R
FALCON         LGT SNOW  25  21  87 N14G20    29.97R WCI  13
FORT CARSON    PTCLDY    28  23  81 N21G26    29.95R WCI  14
LIMON          LGT SNOW  23  22  96 N20       30.01R VSB 1   WCI   8
MONUMENT HILL  LGT SNOW  21  19  93 N14G20    29.97R WCI   8
TRINIDAD       LGT SNOW  33  31  92 NE10      29.96R FOG     WCI  25
$$

COZ042>045-048>051-090-091-011100-
...NORTHEAST COLORADO...

CITY           SKY/WX    TMP DP  RH WIND       PRES   REMARKS
GREELEY ARPT   MOCLDY    25  14  63 NE9       30.04R WCI  15
AKRON          LGT SNOW  22  21  96 N16       30.02R FOG     WCI   8
BURLINGTON     CLOUDY    23  19  85 N24G36    29.98R WCI   7
WRAY           CLOUDY    22  19  87 NW20G26   30.05R WCI   7
STERLING       CLOUDY    27  23  86 N14       30.06R WCI  15
HOLYOKE        NOT AVBL
FORT MORGAN    CLOUDY    26  19  74 N16G23    30.06R WCI  13
$$

COZ086-089-092>099-011100-
...SOUTHEAST COLORADO...

CITY           SKY/WX    TMP DP  RH WIND       PRES   REMARKS
PUEBLO         PTCLDY    32  26  78 VRB3      29.99R
LA JUNTA       CLOUDY    34  27  75 N23       29.99R WCI  22
LAMAR          CLOUDY    32  28  85 N18       29.97R WCI  20
SPRINGFIELD      N/A     32  29  88 N22G30    29.94R WCI  19
$$



USA.gov is the U.S. government's official web portal to all federal, state and local government web resources and services.